Total_Precipitation_Accumulation
0.38 0.36 0.38 0.34 0.28 0.24 0.21 0.18 0.13 0.11 0.10 0.09 0.09 0.07 0.05 0.05 0.05 0.04 0.04 0.03 0.03 0.03 0.05 0.09 0.12 0.16 0.21 0.25 0.29 0.30 0.27 0.22 0.19 0.18 0.17 0.15 0.13 0.12 0.13 0.15 0.15 0.16 0.16
0.45 0.42 0.38 0.35 0.31 0.27 0.24 0.20 0.17 0.15 0.13 0.12 0.10 0.09 0.07 0.06 0.05 0.05 0.05 0.04 0.04 0.03 0.03 0.06 0.11 0.19 0.28 0.35 0.39 0.38 0.35 0.30 0.26 0.23 0.22 0.20 0.18 0.18 0.18 0.19 0.20 0.19 0.20
0.55 0.52 0.44 0.35 0.30 0.30 0.29 0.27 0.25 0.23 0.18 0.13 0.10 0.09 0.08 0.07 0.06 0.06 0.06 0.06 0.05 0.04 0.04 0.05 0.09 0.17 0.27 0.35 0.43 0.49 0.46 0.40 0.36 0.31 0.28 0.26 0.25 0.24 0.24 0.25 0.25 0.24 0.25
0.74 0.66 0.54 0.43 0.43 0.45 0.42 0.36 0.32 0.27 0.21 0.17 0.14 0.12 0.11 0.09 0.08 0.07 0.07 0.06 0.05 0.05 0.05 0.05 0.08 0.13 0.21 0.29 0.41 0.53 0.56 0.54 0.49 0.42 0.37 0.33 0.31 0.30 0.30 0.30 0.30 0.30 0.30
0.83 0.78 0.64 0.57 0.60 0.56 0.48 0.42 0.36 0.32 0.28 0.25 0.23 0.20 0.17 0.15 0.12 0.11 0.09 0.09 0.08 0.07 0.07 0.08 0.09 0.11 0.13 0.18 0.28 0.43 0.55 0.59 0.55 0.47 0.43 0.40 0.37 0.35 0.34 0.33 0.33 0.33 0.33
0.88 0.85 0.75 0.72 0.75 0.70 0.60 0.55 0.48 0.43 0.39 0.38 0.35 0.27 0.21 0.19 0.17 0.14 0.12 0.11 0.11 0.12 0.12 0.12 0.12 0.12 0.13 0.15 0.18 0.29 0.44 0.56 0.57 0.52 0.48 0.45 0.44 0.43 0.43 0.43 0.43 0.41 0.40
1.09 1.02 0.87 0.85 0.88 0.79 0.70 0.68 0.69 0.66 0.57 0.54 0.49 0.35 0.25 0.21 0.18 0.14 0.12 0.12 0.12 0.13 0.14 0.16 0.16 0.15 0.14 0.16 0.18 0.21 0.29 0.45 0.57 0.60 0.56 0.53 0.52 0.52 0.54 0.57 0.59 0.57 0.57
1.12 1.10 1.09 1.05 1.05 1.02 0.97 0.91 0.89 0.83 0.75 0.74 0.68 0.60 0.40 0.26 0.19 0.15 0.16 0.16 0.16 0.16 0.16 0.17 0.17 0.18 0.17 0.17 0.18 0.19 0.23 0.35 0.51 0.63 0.65 0.63 0.61 0.63 0.67 0.72 0.75 0.74 0.75
1.25 1.18 1.16 1.18 1.20 1.19 1.11 1.07 1.06 1.03 0.95 0.89 0.85 0.87 0.63 0.38 0.26 0.21 0.20 0.21 0.21 0.20 0.21 0.21 0.21 0.21 0.21 0.21 0.20 0.21 0.22 0.26 0.39 0.58 0.74 0.79 0.79 0.79 0.83 0.89 0.94 0.97 0.94
1.32 1.29 1.26 1.24 1.24 1.20 1.14 1.18 1.21 1.13 1.13 1.07 1.02 0.92 0.79 0.60 0.52 0.37 0.27 0.27 0.28 0.27 0.27 0.26 0.24 0.24 0.24 0.24 0.25 0.28 0.30 0.31 0.39 0.57 0.79 0.92 0.95 0.99 1.09 1.18 1.25 1.23 1.14
1.31 1.26 1.25 1.27 1.24 1.20 1.15 1.17 1.22 1.23 1.22 1.19 1.13 1.07 1.06 0.92 0.76 0.68 0.49 0.38 0.37 0.36 0.37 0.37 0.35 0.32 0.31 0.31 0.31 0.36 0.42 0.44 0.51 0.62 0.80 0.96 1.07 1.16 1.27 1.37 1.45 1.47 1.38
1.26 1.20 1.19 1.21 1.24 1.23 1.18 1.17 1.24 1.29 1.29 1.22 1.15 1.06 1.02 0.96 0.85 0.84 0.74 0.54 0.47 0.39 0.39 0.39 0.40 0.40 0.41 0.44 0.49 0.59 0.60 0.62 0.67 0.73 0.85 0.99 1.11 1.20 1.33 1.45 1.55 1.58 1.57
1.24 1.18 1.16 1.17 1.20 1.23 1.27 1.32 1.32 1.29 1.32 1.30 1.25 1.19 1.12 1.02 0.95 0.97 0.94 0.76 0.62 0.50 0.46 0.44 0.44 0.46 0.48 0.51 0.58 0.75 0.75 0.77 0.80 0.84 0.95 1.09 1.15 1.17 1.20 1.29 1.43 1.53 1.57
1.15 1.17 1.22 1.26 1.27 1.27 1.27 1.29 1.26 1.22 1.23 1.22 1.21 1.20 1.16 1.08 1.08 1.10 1.10 1.13 1.02 0.81 0.69 0.63 0.60 0.60 0.63 0.66 0.75 0.85 0.77 0.86 0.83 0.84 0.93 1.02 1.02 1.00 0.99 1.06 1.25 1.42 1.49
1.07 1.11 1.17 1.22 1.23 1.21 1.19 1.19 1.17 1.14 1.16 1.17 1.15 1.14 1.11 1.04 1.05 1.06 1.08 1.17 1.28 1.14 0.85 0.66 0.63 0.63 0.67 0.70 0.80 0.77 0.71 0.86 0.86 0.82 0.84 0.85 0.83 0.81 0.79 0.81 0.90 1.05 1.16
0.90 0.93 1.00 1.07 1.09 1.08 1.06 1.07 1.06 1.03 1.07 1.06 1.06 1.08 1.06 0.99 0.98 1.01 1.05 1.10 1.20 1.27 1.08 0.73 0.62 0.61 0.65 0.68 0.76 0.69 0.65 0.77 0.76 0.74 0.73 0.72 0.71 0.69 0.68 0.68 0.70 0.78 0.88
0.82 0.86 0.89 0.93 0.95 0.96 0.97 0.96 0.94 0.92 0.93 0.93 0.94 0.97 0.98 0.97 1.00 1.01 1.03 1.07 1.13 1.22 1.21 0.90 0.73 0.71 0.74 0.73 0.73 0.66 0.60 0.59 0.58 0.68 0.64 0.62 0.60 0.60 0.60 0.60 0.61 0.63 0.66
0.71 0.71 0.74 0.77 0.78 0.79 0.80 0.82 0.82 0.81 0.80 0.80 0.81 0.86 0.87 0.90 0.93 0.96 1.02 1.06 1.09 1.13 1.17 1.03 0.81 0.72 0.70 0.67 0.64 0.61 0.56 0.51 0.47 0.57 0.56 0.53 0.52 0.50 0.49 0.49 0.52 0.57 0.59
0.72 0.64 0.62 0.63 0.64 0.66 0.67 0.68 0.70 0.70 0.72 0.72 0.71 0.74 0.77 0.83 0.89 0.89 0.92 0.95 0.96 0.98 1.02 1.00 0.83 0.67 0.61 0.56 0.56 0.52 0.47 0.44 0.41 0.44 0.46 0.45 0.45 0.46 0.47 0.47 0.49 0.50 0.50
0.65 0.61 0.57 0.54 0.54 0.57 0.61 0.63 0.65 0.67 0.67 0.68 0.69 0.71 0.73 0.75 0.78 0.80 0.84 0.86 0.86 0.86 0.87 0.90 0.85 0.74 0.66 0.60 0.61 0.57 0.50 0.45 0.42 0.38 0.43 0.43 0.45 0.45 0.42 0.40 0.39 0.41 0.43
0.53 0.53 0.53 0.53 0.51 0.50 0.53 0.57 0.60 0.64 0.66 0.68 0.69 0.70 0.72 0.79 0.80 0.78 0.77 0.77 0.78 0.82 0.86 0.91 0.88 0.74 0.61 0.56 0.55 0.50 0.50 0.49 0.49 0.45 0.44 0.40 0.37 0.33 0.31 0.33 0.36 0.39 0.43
0.43 0.46 0.51 0.55 0.59 0.60 0.73 0.69 0.63 0.64 0.68 0.69 0.67 0.65 0.64 0.68 0.67 0.68 0.67 0.66 0.71 0.79 0.90 0.94 0.83 0.66 0.51 0.45 0.44 0.49 0.54 0.59 0.52 0.37 0.38 0.37 0.35 0.35 0.30 0.28 0.36 0.39 0.41
0.52 0.56 0.60 0.65 0.69 0.76 0.84 0.76 0.71 0.63 0.65 0.66 0.63 0.58 0.54 0.52 0.54 0.47 0.50 0.54 0.57 0.64 0.67 0.61 0.54 0.47 0.43 0.41 0.49 0.59 0.58 0.57 0.45 0.32 0.39 0.43 0.38 0.36 0.31 0.31 0.37 0.36 0.37
0.76 0.80 0.83 0.84 0.84 0.83 0.81 0.72 0.69 0.61 0.58 0.54 0.49 0.44 0.40 0.37 0.35 0.37 0.39 0.47 0.45 0.44 0.43 0.39 0.37 0.35 0.35 0.38 0.47 0.58 0.60 0.59 0.47 0.37 0.37 0.41 0.33 0.30 0.27 0.28 0.35 0.36 0.36
0.87 0.84 0.82 0.80 0.77 0.71 0.66 0.57 0.49 0.43 0.43 0.42 0.37 0.34 0.34 0.31 0.37 0.43 0.43 0.45 0.35 0.31 0.35 0.39 0.41 0.40 0.40 0.40 0.41 0.53 0.63 0.70 0.61 0.40 0.32 0.34 0.30 0.28 0.28 0.27 0.30 0.36 0.36
0.67 0.61 0.57 0.53 0.50 0.46 0.44 0.39 0.36 0.32 0.30 0.29 0.29 0.29 0.34 0.34 0.40 0.47 0.43 0.38 0.32 0.28 0.30 0.34 0.37 0.39 0.38 0.40 0.44 0.45 0.60 0.83 0.72 0.50 0.27 0.33 0.35 0.41 0.54 0.33 0.27 0.30 0.33